Location: Unspecified
(37.4194°N, 0.0000°E)
Time: 00:24:03
(UTC+00:00)

NOAA 16 DEB - Visible Passes

Search period start: 04 April 2026 00:00
Search period end: 14 April 2026 00:00
Orbit: 768 x 788 km, 98.8° (Epoch: 28 March)

Date Brightness Start Highest point End Pass type
(mag) Time Alt. Az. Time Alt. Az. Time Alt. Az.
7 Apr ? 23:27:58 10° N 23:27:58 10° N 23:28:01 10° N visible
10 Apr ? 00:00:56 11° N 00:00:56 11° N 00:01:04 10° N visible
10 Apr ? 23:27:11 12° N 23:27:11 12° N 23:27:31 10° N visible
13 Apr ? 00:00:04 12° N 00:00:04 12° N 00:00:31 10° N visible
13 Apr ? 23:26:17 13° N 23:26:17 13° N 23:26:54 10° N visible
